Location: Unspecified
(0.0000°N, 0.0000°E)
Time: 07:41:10
(UTC+00:00)

Tiangong 2 - Pass Details

Date: 06 January 2018
Orbit: 382 x 388 km, 42.8° (Epoch: 20 April)

Event Time Altitude Azimuth Distance (km) Brightness Sun altitude
Rises 19:00:21 0° 339° (NNW) 2,249 4.9 -12.5°
Reaches altitude 10° 19:02:51 10° 360° (N) 1,396 3.7 -13.1°
Enters shadow 19:03:59 15° 19° (NNE) 1,128 3.0 -13.4°
